Theta_e
310 312 314 315 319 324 326 328 329 330 330 329 328 328 325 325 325 324 324 323 322 322 321 321 320 323 322 321 320 319 318 317 313 302 302 302 299 296 294 296 295 295 296
310 310 311 313 316 319 322 325 328 328 329 328 328 327 326 324 324 322 321 321 320 319 319 319 319 320 320 320 318 316 315 315 312 302 295 293 295 295 294 291 290 292 291
310 309 309 311 314 317 320 322 324 326 327 327 327 326 325 324 322 322 321 320 319 319 319 318 318 319 317 317 315 313 312 306 307 300 291 290 289 290 288 289 289 288 289
309 308 307 309 312 314 318 320 322 324 324 324 324 324 323 324 323 321 320 319 319 319 318 319 318 317 316 314 312 311 305 302 298 293 289 288 288 287 287 286 285 286 286
306 307 307 308 309 312 314 318 321 322 322 322 321 321 321 321 321 320 318 319 318 317 317 317 317 312 303 309 308 304 302 295 292 289 287 287 286 284 285 287 287 288 288
304 304 305 306 306 308 311 315 318 319 320 319 319 318 318 317 309 306 313 317 316 314 313 310 307 295 297 299 300 299 302 298 292 291 288 287 287 287 288 287 287 286 286
302 303 303 304 303 305 308 312 314 315 316 316 315 316 315 316 305 303 302 317 315 314 309 304 295 295 294 296 296 296 295 296 296 295 290 289 287 287 287 286 286 285 285
299 300 300 299 300 301 304 306 310 312 312 311 311 312 313 312 301 301 299 313 312 309 304 301 298 293 293 292 291 289 287 287 289 290 292 289 289 289 288 287 286 284 282
296 298 298 298 297 297 297 299 301 305 304 304 303 301 303 303 298 299 299 305 294 294 293 295 295 293 292 292 289 285 284 284 289 290 290 290 290 289 287 285 283 283 281
295 296 296 296 295 295 295 296 294 294 295 295 292 297 297 299 295 297 300 298 294 290 291 291 292 292 292 292 289 286 284 283 284 285 285 286 286 285 285 285 284 283 282
294 294 293 293 292 293 292 293 291 290 289 289 290 288 290 293 294 296 298 297 295 291 289 288 288 291 292 292 290 288 287 284 285 283 282 282 282 282 281 281 282 283 281
292 291 290 290 290 290 290 291 288 288 288 288 287 286 287 288 291 295 296 298 296 292 289 287 288 290 291 291 287 289 287 286 284 282 281 281 281 281 280 280 280 280 280
289 288 289 289 289 289 288 288 288 287 290 288 288 288 286 286 290 293 294 294 292 288 287 288 290 290 289 288 288 288 284 284 283 282 281 280 280 280 279 278 277 277 277
287 287 288 288 289 289 289 289 288 288 289 288 288 287 286 286 287 288 289 288 287 286 288 288 288 287 286 286 285 284 284 284 283 283 281 279 278 277 278 279 278 277 276
286 287 288 288 288 289 289 290 289 290 291 289 288 288 286 286 287 289 287 286 286 286 286 286 285 284 283 283 283 283 281 282 281 280 279 278 278 278 277 277 276 276 274
285 286 288 289 289 289 289 288 289 290 290 291 292 290 288 290 289 289 289 288 288 288 285 283 283 283 282 282 281 280 280 281 280 280 279 278 277 277 276 275 275 274 274
284 285 286 287 288 289 288 287 287 286 290 290 290 290 290 288 288 288 288 288 288 287 284 283 282 282 281 281 280 279 278 279 279 279 278 278 278 277 275 275 274 274 273
283 284 285 286 288 289 288 287 288 287 284 285 288 288 288 288 288 288 288 286 283 284 283 282 281 281 280 280 279 279 277 277 278 278 277 277 276 275 274 274 274 273 272
282 283 284 286 287 288 288 287 287 286 286 284 284 285 286 288 287 287 287 283 281 280 281 280 280 280 280 280 279 279 278 277 277 277 276 275 275 274 273 273 273 271 270
279 280 282 284 287 287 287 286 285 285 284 284 284 284 284 284 283 283 282 281 281 280 280 280 280 280 280 279 279 279 277 276 276 275 274 274 273 272 272 270 270 269 269
277 279 282 285 286 286 286 285 285 284 283 283 283 284 285 283 283 281 281 281 280 280 279 278 277 277 277 277 277 276 275 274 274 273 272 271 270 269 268 269 267 267 265
277 279 283 285 286 286 285 285 284 283 282 282 283 284 284 281 278 276 275 275 275 275 276 275 273 273 273 273 273 272 271 270 269 269 268 267 266 266 265 264 264 264 263
277 280 283 284 284 283 282 282 281 279 280 279 276 275 274 273 272 270 269 269 270 270 270 270 268 267 268 268 269 270 268 267 267 267 265 264 263 263 262 262 261 260 260
279 280 278 277 278 278 278 277 277 275 273 273 272 271 270 269 268 267 267 267 267 266 267 267 266 265 264 264 264 264 263 263 263 263 263 262 261 259 260 259 259 258 257
277 276 275 275 274 272 272 272 271 271 270 270 268 268 267 267 266 265 265 265 264 264 264 264 264 263 263 262 262 261 264 262 261 261 261 260 259 258 256 256 255 255 255
273 273 272 272 272 271 270 270 269 269 268 268 267 267 266 265 264 264 264 264 263 263 262 262 262 261 261 261 260 261 263 263 260 260 259 259 257 256 255 254 253 254 254
Wind_Speed
11 12 12 13 15 16 17 18 20 19 19 19 19 19 20 21 20 19 20 19 19 18 16 17 19 17 11 12 9 10 10 9 10 2 2 4 5 5 5 4 4 4 5
11 13 13 13 14 15 17 18 19 20 19 19 19 19 19 19 20 21 21 19 20 20 19 18 19 13 16 14 10 12 12 10 6 5 2 2 2 3 5 5 3 3 4
12 12 13 13 13 15 17 18 18 19 20 19 18 18 18 19 21 20 21 21 19 19 19 18 18 16 14 12 11 11 10 5 4 4 4 2 2 2 3 3 3 4 3
14 12 13 13 14 15 15 17 17 18 19 18 18 17 17 18 20 19 20 20 18 18 18 18 19 17 17 15 12 11 8 6 5 4 4 3 2 2 2 3 3 2 3
15 14 14 14 14 15 16 16 16 17 16 17 16 16 16 16 14 18 18 19 18 17 16 16 16 15 16 15 10 9 9 6 4 4 3 3 3 3 4 4 3 3 5
16 15 15 15 15 14 15 15 15 15 15 14 16 15 16 13 15 17 17 16 16 15 15 11 10 10 12 16 13 15 14 11 7 5 3 4 5 4 4 5 4 3 3
16 16 15 15 15 14 12 15 14 14 13 15 15 15 16 16 16 19 20 15 15 15 14 12 7 6 9 9 10 11 8 8 7 9 6 5 6 8 8 6 4 3 2
15 15 14 12 13 14 12 12 14 12 13 13 13 15 14 13 15 17 20 16 13 13 13 14 13 11 10 12 10 10 7 6 5 4 6 6 5 8 7 4 4 5 4
14 15 15 13 13 12 13 14 13 14 11 10 8 10 13 11 16 19 16 12 6 8 7 11 13 12 16 21 13 12 9 6 7 11 13 13 13 13 9 7 4 3 2
15 16 16 14 13 14 13 14 9 8 9 7 8 11 14 15 18 21 21 9 7 6 4 7 11 13 22 21 14 14 11 8 9 9 9 12 11 10 8 3 5 3 3
14 15 16 14 14 15 14 11 9 8 6 7 7 5 7 9 12 22 24 13 12 10 8 8 7 20 21 19 17 11 9 13 13 9 8 6 5 5 3 2 4 3 3
14 15 16 14 11 13 13 11 8 7 7 7 5 3 3 5 12 19 23 18 19 12 11 5 10 21 21 19 12 18 23 15 8 7 6 5 5 4 3 2 5 5 5
14 16 15 14 12 12 12 10 6 6 7 7 7 6 3 2 4 14 14 21 17 12 10 13 20 24 23 15 19 22 14 8 7 7 6 4 3 5 5 3 4 4 3
14 16 15 13 13 10 9 8 8 7 7 7 7 7 6 5 5 4 10 10 18 15 21 15 13 15 16 15 14 10 6 6 7 6 6 6 5 3 4 2 2 3 1
15 15 14 11 12 12 11 10 10 10 11 9 9 9 11 9 9 12 13 14 9 14 16 11 10 10 10 8 7 7 6 6 6 5 6 6 6 5 4 3 2 3 1
16 14 12 11 11 9 10 9 10 12 13 13 13 13 7 11 19 20 23 24 30 29 12 11 10 10 10 10 9 7 6 6 6 6 6 6 5 5 6 4 3 2 1
15 16 12 13 12 11 9 10 10 3 10 13 12 14 18 23 24 25 25 29 29 21 11 10 10 10 10 8 7 7 6 5 7 5 5 5 5 4 4 4 4 2 2
15 21 14 13 13 12 11 11 9 10 9 7 12 12 18 25 26 27 30 26 12 9 9 11 10 9 9 9 8 7 8 7 5 5 5 5 5 5 5 3 3 2 2
14 13 14 13 13 14 10 10 10 9 9 9 10 7 13 22 25 29 25 11 11 10 9 9 9 10 9 9 8 8 8 7 6 5 5 5 5 4 3 3 2 3 3
15 22 21 14 12 11 10 11 10 10 9 10 11 13 13 13 9 10 7 9 10 10 10 10 10 10 9 9 8 8 8 7 6 5 5 5 5 3 3 3 2 1 2
13 13 19 14 12 11 10 11 10 9 9 9 9 12 22 15 13 8 9 9 9 10 11 10 9 9 8 8 8 7 7 6 5 6 5 5 5 4 4 3 3 2 2
13 13 13 12 11 10 10 9 9 10 10 11 11 12 18 9 10 9 8 9 9 8 8 10 9 8 8 7 7 7 7 6 6 6 6 6 5 5 3 3 2 2 2
13 14 12 8 7 8 8 8 9 10 11 11 12 12 11 10 11 11 10 9 8 9 8 8 10 9 7 7 7 5 7 6 5 6 7 6 4 4 3 3 3 2 1
13 10 5 4 6 7 8 9 8 12 12 12 12 11 11 11 12 13 11 9 9 9 8 8 8 10 9 7 6 6 6 6 5 6 7 6 5 4 4 4 3 3 2
3 4 5 6 7 9 10 11 11 11 12 12 12 12 12 11 12 11 10 9 9 9 9 9 8 11 10 11 9 9 9 10 7 7 5 6 7 7 4 3 2 2 2
4 6 6 7 8 9 10 11 11 12 13 12 12 12 11 11 10 10 9 9 9 9 10 7 8 11 11 8 9 9 9 9 7 8 5 4 5 4 3 4 4 2 2
Wind_Direction
294 289 275 265 256 251 244 242 242 241 237 229 221 219 212 210 209 213 213 211 212 210 209 209 214 217 212 215 208 213 219 210 222 135 96 123 152 161 149 169 150 178 177
289 291 288 277 263 257 249 246 239 239 237 234 228 222 217 213 210 210 210 209 211 212 211 211 215 211 213 212 208 211 214 208 195 161 139 130 134 159 155 155 154 168 165
296 288 290 286 271 260 256 250 246 240 237 235 230 225 221 217 215 212 211 209 207 210 210 211 215 208 209 207 204 208 209 186 165 137 142 113 114 140 124 133 170 169 177
307 291 288 288 281 273 262 255 249 242 240 235 229 228 224 223 222 217 214 209 206 208 210 210 211 208 205 205 203 199 176 154 141 121 124 143 134 126 122 144 201 193 175
315 305 293 289 285 280 270 258 252 245 239 239 233 225 220 225 225 218 217 211 204 205 205 208 209 205 201 195 187 175 163 145 133 136 128 134 145 161 187 168 171 170 189
315 309 300 289 284 277 275 264 251 247 239 232 230 225 220 217 211 208 208 213 211 205 205 194 183 170 175 173 169 163 168 164 162 142 137 168 175 165 153 156 150 156 197
309 308 304 296 290 283 274 273 260 249 244 234 222 221 222 222 203 199 200 207 205 209 195 185 164 156 152 143 126 124 115 111 153 169 163 176 154 170 152 157 170 147 145
310 305 303 296 287 287 276 266 267 254 242 232 225 219 219 221 193 198 195 207 201 199 187 180 170 158 153 140 126 113 107 106 132 154 159 155 164 156 154 137 135 99 75
307 308 309 304 292 286 281 274 265 264 249 232 226 211 208 210 192 188 190 210 177 167 165 165 159 152 153 136 136 129 118 104 99 107 100 100 105 113 119 119 119 132 128
310 309 307 303 289 283 277 272 258 240 239 230 229 216 213 210 195 187 181 170 182 146 160 147 160 150 158 146 143 142 139 144 131 110 99 91 88 101 84 67 142 139 117
303 304 305 303 292 284 279 273 258 235 234 222 224 237 223 212 196 183 175 178 169 157 160 178 132 160 140 145 142 149 151 143 134 117 111 104 107 95 79 46 58 67 106
300 300 300 297 295 289 273 267 240 225 218 216 201 214 239 210 189 181 168 171 161 155 152 139 141 149 137 133 121 131 136 130 124 122 117 123 124 113 109 94 76 67 65
290 294 293 293 291 285 264 258 234 220 223 217 205 197 172 264 200 159 144 147 139 128 128 136 152 132 130 120 132 133 128 132 135 127 137 120 95 105 106 96 81 81 92
283 291 295 289 291 277 253 240 235 217 211 208 203 187 164 159 155 151 128 111 114 109 123 122 129 111 104 118 120 120 120 129 123 133 120 108 112 128 130 118 123 119 93
287 288 286 280 277 274 252 240 229 228 210 199 202 184 170 177 182 170 152 133 126 128 117 125 127 112 125 126 127 126 121 113 123 115 124 130 135 138 131 131 101 111 91
287 290 287 286 278 263 255 250 242 240 229 216 210 191 187 161 156 156 144 137 136 134 127 139 128 139 145 147 149 128 112 146 123 122 136 135 147 149 140 131 113 108 132
273 282 284 280 274 260 244 236 232 215 208 184 178 197 170 158 154 148 146 139 141 137 135 136 146 146 142 142 133 123 142 118 114 131 137 144 143 137 121 134 138 144 150
270 274 273 269 265 255 239 228 220 206 185 177 163 169 165 154 150 145 142 134 133 114 128 133 141 137 138 124 129 140 118 119 137 140 142 144 141 128 129 130 142 132 122
271 271 272 266 257 246 230 222 210 201 189 163 131 145 163 155 149 146 143 139 137 128 131 131 135 130 123 126 139 126 126 138 143 142 139 133 118 121 113 108 110 104 95
270 267 263 259 254 233 216 210 202 194 183 177 155 149 143 140 155 142 123 125 125 126 128 132 124 121 129 134 126 125 121 129 134 136 132 121 116 108 106 114 117 107 142
269 268 259 251 238 220 212 205 196 182 170 159 146 146 152 142 148 141 128 125 124 123 121 116 116 115 112 109 113 115 118 121 126 114 106 98 91 95 79 68 73 113 132
265 263 257 240 229 210 199 188 170 160 151 137 136 136 130 119 114 109 102 101 100 99 105 108 105 99 98 105 112 112 124 123 114 114 103 100 103 99 97 102 97 79 75
262 258 247 229 212 179 160 161 154 145 139 125 121 119 114 110 102 97 95 88 82 85 89 96 97 91 84 78 73 98 118 114 110 109 112 115 116 113 115 108 99 96 112
255 242 201 156 146 136 135 130 124 117 118 112 106 102 101 101 101 99 95 91 95 86 83 87 92 97 95 93 91 87 93 96 99 106 109 114 109 106 94 95 118 115 106
208 155 145 132 121 117 116 112 111 109 104 101 100 99 99 100 98 97 101 97 93 91 85 86 90 105 109 108 107 102 108 105 102 102 92 96 103 110 111 117 110 99 105
85 103 107 109 108 111 113 111 107 104 103 103 101 98 100 101 97 95 97 99 100 97 99 101 109 107 104 101 108 113 117 119 116 117 113 115 122 123 129 140 145 144 156